User: anonymous   Login
Location: Chiroubles
(46.1812°N, 4.6660°E)
Time: 04:23:54
(UTC+00:00)
Language:

Transit 2A - Orbit

View from above orbital plane
View from above orbital plane
View from above satellite
View from above satellite

Ground track
Ground track

The orbit data is extracted from the following two-line orbital elements,

1    45U 60007A   21208.74812646 -.00000071  00000-0  92527-5 0  9992
2    45  66.6951  32.8311 0252764  19.0070 342.0254 14.33728125180808
Epoch (UTC): 27 July 2021 17:57:18
Eccentricity: 0.0252764
inclination: 66.6951°
perigee height: 598 km
apogee height: 960 km
right ascension of ascending node: 32.8311°
argument of perigee: 19.0070°
revolutions per day: 14.33728125
mean anomaly at epoch: 342.0254°
orbit number at epoch: 18080

The dashed part of the orbit path shows where the satellite is in the earth's shadow,  

DLR